ARIANE 40 R/B (21610 NORAD) Tracking and Keplerian Element Data

This shows tracking and keplerian element data for the satellite.

Feedback or suggestion? Click here.




ElementValue
Catalog21610
NameARIANE 40 R/B
Epoch Orbit76149
Epoch Day34.88542709
Epoch Year2025
RAAN95.8528
Inclination98.2594
Eccentricity0.0003025
Argument of Perigee180.6311
Mean Anonmoly179.4876
Mean Motion14.42440587
Decay Rate7.52E-06
L11 21610U 91050F 25034.88542709 .00000752 00000+0 23980-3 0 9990
L22 21610 98.2594 95.8528 0003025 180.6311 179.4876 14.42440587761494



Live tracking and technical data element details for ARIANE 40 R/B (NORAD 21610). ARIANE 40 R/B can be tracked NOW for your location showing map with azimuth and elevation plus other details from your city location.







IsCatalogInMostPopularTable: catalog: 21610, numindb: 564
Update: records affected: 1



GetName: 21610 ARIANE 40 R/B

Hit Count: updated at: Thu, 22 May 2025 03:08:46 GMT